TimeAKDT,TemperatureF,Dew PointF,Humidity,Sea Level PressureIn,VisibilityMPH,Wind Direction,Wind SpeedMPH,Gust SpeedMPH,PrecipitationIn,Events,Conditions,WindDirDegrees,DateUTC
12:53 AM,37.0,33.1,86,30.19,10.0,ESE,15.0,-,0.00,Rain,Light Rain,110,2013-05-01 08:53:00
1:53 AM,37.0,33.1,86,30.17,10.0,ESE,17.3,26.5,0.00,Rain,Light Rain,110,2013-05-01 09:53:00
2:53 AM,36.0,33.1,89,30.15,6.0,ESE,20.7,27.6,0.05,Rain,Light Rain,110,2013-05-01 10:53:00
3:53 AM,36.0,33.1,89,30.13,6.0,ESE,25.3,31.1,0.08,Rain,Light Rain,120,2013-05-01 11:53:00
4:53 AM,36.0,33.1,89,30.10,6.0,ESE,20.7,-,0.07,Rain,Light Rain,120,2013-05-01 12:53:00
5:19 AM,35.1,33.1,92,30.08,6.0,ESE,21.9,-,0.01,Rain,Light Rain,120,2013-05-01 13:19:00
5:53 AM,35.1,33.1,92,30.06,6.0,ESE,24.2,28.8,0.03,Rain,Light Rain,120,2013-05-01 13:53:00
6:53 AM,35.1,33.1,92,30.03,4.0,ESE,20.7,28.8,0.05,Rain,Light Rain,120,2013-05-01 14:53:00
7:53 AM,36.0,33.1,89,30.00,4.0,ESE,29.9,35.7,0.06,Rain,Light Rain,120,2013-05-01 15:53:00
8:53 AM,37.0,34.0,89,29.99,4.0,ESE,26.5,35.7,0.04,Rain,Light Rain,120,2013-05-01 16:53:00
9:53 AM,37.0,34.0,89,29.95,5.0,ESE,28.8,41.4,0.02,Rain,Light Rain,120,2013-05-01 17:53:00
10:53 AM,37.9,34.0,86,29.93,3.0,ESE,32.2,46.0,0.05,Rain,Light Rain,110,2013-05-01 18:53:00
11:53 AM,39.0,34.0,82,29.91,4.0,ESE,28.8,41.4,0.04,Rain,Light Rain,110,2013-05-01 19:53:00
12:33 PM,37.9,34.0,86,29.90,3.0,ESE,31.1,42.6,0.07,Rain,Light Rain,120,2013-05-01 20:33:00
12:53 PM,37.9,34.0,86,29.90,4.0,ESE,29.9,40.3,0.11,Rain,Light Rain,120,2013-05-01 20:53:00
1:34 PM,39.0,35.1,86,29.89,6.0,ESE,29.9,41.4,0.03,Rain,Light Rain,120,2013-05-01 21:34:00
1:53 PM,39.0,35.1,86,29.90,6.0,ESE,34.5,43.7,0.06,Rain,Light Rain,120,2013-05-01 21:53:00
2:53 PM,39.0,35.1,86,29.91,5.0,ESE,28.8,34.5,0.08,Rain,Light Rain,120,2013-05-01 22:53:00
3:53 PM,39.9,36.0,86,29.91,6.0,ESE,27.6,36.8,0.06,Rain,Light Rain,110,2013-05-01 23:53:00
4:53 PM,39.9,37.0,89,29.91,4.0,East,24.2,32.2,0.05,Rain,Rain,100,2013-05-02 00:53:00
5:53 PM,42.1,37.9,85,29.91,5.0,ESE,25.3,31.1,0.02,Rain,Light Rain,110,2013-05-02 01:53:00
6:53 PM,42.1,39.0,89,29.93,5.0,ESE,24.2,35.7,0.02,Rain,Light Rain,110,2013-05-02 02:53:00
7:53 PM,42.1,37.9,85,29.96,5.0,ESE,20.7,32.2,0.01,Rain,Light Rain,120,2013-05-02 03:53:00
8:53 PM,42.1,39.0,89,29.99,5.0,ESE,18.4,-,0.01,Rain,Light Rain,110,2013-05-02 04:53:00
9:37 PM,42.1,39.0,89,30.00,5.0,ESE,20.7,27.6,0.00,Rain,Light Rain,110,2013-05-02 05:37:00
9:53 PM,42.1,39.0,89,30.01,6.0,East,18.4,26.5,0.00,Rain,Light Rain,100,2013-05-02 05:53:00
10:53 PM,42.1,39.0,89,30.01,10.0,ESE,17.3,27.6,0.00,Rain,Light Rain,110,2013-05-02 06:53:00
11:53 PM,43.0,39.0,86,30.04,10.0,ESE,17.3,-,0.00,,Overcast,110,2013-05-02 07:53:00